Tracking 29892 objects as of 21-Nov-2024
HD Live streaming from Space Station
objects crossing your sky now

CHECKMATE 8

Track CHECKMATE 8 now!
10-day predictions


NORAD ID: 56162
Int'l Code: 2023-050A
Perigee: 948.6 km
Apogee: 959.5 km
Inclination: 81.0 °
Period: 104.0 minutes
Semi major axis: 7325 km
RCS: Unknown
Launch date: April 2, 2023
Source: United States (US)
Launch site: AIR FORCE WESTERN TEST RANGE (AFWTR)
Your satellite tracking list
Your tracking list is empty




NASA's NSSDC Master Catalog

Two Line Element Set (TLE):
1 56162U 23050A   24325.80444764  .00000199  00000-0  16694-3 0  9991
2 56162  81.0017 261.6025 0007479  66.6662 293.5280 13.84798739 82783
Source of the keplerian elements: AFSPC